SPACEBEE-85 (47705 NORAD) Tracking and Keplerian Element Data

This shows tracking and keplerian element data for the satellite.

Feedback or suggestion? Click here.




ElementValue
Catalog47705
NameSPACEBEE-85
Epoch Orbit615
Epoch Day99.76495707
Epoch Year2021
RAAN174.7078
Inclination97.4562
Eccentricity0.0011886
Argument of Perigee148.2487
Mean Anonmoly211.9467
Mean Motion15.21474866
Decay Rate3.953E-05
L11 47705U 21015G 21099.76495707 .00003953 00000-0 17863-3 0 9996
L22 47705 97.4562 174.7078 0011886 148.2487 211.9467 15.21474866 6156

Live tracking and technical data element details for SPACEBEE-85 (NORAD 47705). SPACEBEE-85 can be tracked NOW for your location showing map with azimuth and elevation plus other details from your city location.

Track the satellite on the map from your city or location and see movement details for azimuth, elevation, latitude, longitude, range, height, and movement on the map or in text.







IsCatalogInMostPopularTable: catalog: 47705, numindb: 8
Update: records affected: 1



GetName: 47705 SPACEBEE-85

Hit Count: updated at: Sat, 10 Apr 2021 18:22:25 GMT